Location: Vidojevica
(43.1414°N, 21.5558°E)
Time: 05:18:12
(UTC+02:00)

Tiangong 2 - Pass Details

Date: 23 August 2018
Orbit: 384 x 394 km, 42.8° (Epoch: 23 September)

Event Time Altitude Azimuth Distance (km) Brightness Sun altitude
Exits shadow 03:21:58 24° 93° (E) 839 3.1 -23.6°
Drops below altitude 10° 03:23:26 10° 86° (E) 1,410 4.5 -23.4°
Sets 03:25:32 0° 82° (E) 2,267 5.8 -23.1°
